Location: Brno
(49.2000°N, 16.6330°E)
Time: 02:02:55
(UTC+02:00)

Vanguard 3 - Pass Details

Date: 31 July 2021
Orbit: 510 x 3260 km, 33.3° (Epoch: 16 September)

Event Time Altitude Azimuth Distance (km) Brightness Sun altitude
Rises 19:05:48 0° 230° (SW) 5,745 12.1 12.6°
Reaches altitude 10° 19:09:26 10° 224° (SW) 5,066 11.7 12.1°
Maximum altitude 19:23:49 42° 161° (SSE) 3,935 10.5 9.8°
Drops below altitude 10° 19:41:23 10° 100° (E) 6,141 11.0 7.1°
Sets 19:46:20 0° 94° (E) 7,026 11.3 6.3°
